[[{"header":{"parameterUnit":"m.s-1","parameterCategory":1,"la1":30.2991,"la2":30.254,"lo1":-89.0895,"lo2":-89.0444,"dy":0.0017,"dx":0.0017,"nx":28,"ny":28,"refTime":"2026-01-03T09:00:00:Z","depth":0,"parameterNumber":2,"parameterNumberName":"U-component_of_WINDS"},"data":[0,0,0,0,0,0,0,0,0,0,0,0,0,0,0,0,0,0,0,0,0,0,0,0,0,0,0,0,0,0,0,0,0,0,0,0,0,0,0,0,0,0,0,0,0,0,0,0,0,0,0,0,0,0,0,0,0,0,-0.2831,-0.2832,0,-0.2899,-0.2899,-0.29,-0.2911,-0.2911,-0.291,-0.291,-0.2979,-0.2981,-0.2984,0,0,0,0,0,0,0,0,0,0,0,0,0,-0.2712,-0.2714,-0.2831,-0.2832,-0.2833,-0.2898,-0.2899,-0.29,-0.2911,-0.2911,-0.291,-0.2909,-0.2978,-0.2981,-0.2984,0,0,0,0,0,0,0,0,0,0,0,0,0,-0.277,-0.2715,-0.2831,-0.2846,-0.2848,-0.2898,-0.2899,-0.2901,-0.2912,-0.2911,-0.291,-0.2909,-0.2977,-0.2981,-0.2984,-0.3024,0,0,-0.2995,-0.2997,0,0,0,0,0,0,0,0,-0.2767,-0.2774,-0.2843,-0.2845,-0.2848,-0.2896,-0.2883,-0.2942,-0.2912,-0.2888,-0.291,-0.2909,-0.2952,-0.2958,-0.2972,-0.3027,-0.303,-0.2996,-0.2998,-0.2999,-0.3,0,0,0,0,0,0,0,-0.2763,-0.2771,-0.2858,-0.2844,-0.2847,-0.285,-0.2857,-0.2894,-0.2924,-0.289,-0.2891,-0.2898,-0.2953,-0.2969,-0.2974,-0.3031,-0.2996,-0.2999,-0.3001,-0.3002,-0.3122,-0.3123,0,0,0,0,0,0,-0.2756,-0.2768,-0.2856,-0.286,-0.2804,-0.2853,-0.2861,-0.2881,-0.2923,-0.2929,-0.2899,-0.2899,-0.2963,-0.297,-0.2976,-0.3026,-0.2999,-0.3003,-0.3005,-0.3121,-0.3122,-0.3124,0,0,0,0,0,0,-0.2753,-0.2763,-0.2853,-0.2814,-0.2826,-0.2856,-0.2878,-0.2883,-0.2899,-0.2931,-0.2936,-0.291,-0.2963,-0.2971,-0.3012,-0.3029,-0.3004,-0.3008,-0.312,-0.3122,-0.3123,-0.3125,0,0,0,0,0,0,-0.275,-0.2762,-0.2778,-0.2814,-0.2828,-0.2887,-0.2879,-0.2885,-0.2905,-0.2905,-0.2942,-0.2947,-0.2963,-0.3007,-0.3016,-0.3033,-0.301,-0.3119,-0.3121,-0.3123,-0.3124,-0.3127,-0.3129,0,0,0,0,0,-0.2745,-0.2776,-0.2779,-0.2789,-0.2848,-0.2888,-0.2896,-0.2913,-0.2906,-0.2922,-0.2942,-0.2946,-0.3025,-0.3011,-0.3021,-0.304,-0.3118,-0.312,-0.3122,-0.3123,-0.3126,-0.3129,0,0,0,0,0,0,-0.274,-0.2781,-0.2784,-0.2827,-0.2854,-0.289,-0.2911,-0.2916,-0.2946,-0.2945,-0.2964,-0.2973,-0.3012,-0.303,-0.3013,-0.308,-0.3071,-0.3075,-0.3068,-0.3071,-0.3074,-0.3069,-0.3013,0,0,0,0,0,-0.2744,-0.2774,-0.2808,-0.2842,-0.2856,-0.2881,-0.2899,-0.291,-0.2939,-0.295,-0.2974,-0.3001,-0.3033,-0.3053,-0.3083,-0.3126,-0.3135,-0.3144,-0.3147,-0.3149,-0.3153,-0.3178,-0.3182,-0.3131,-0.3131,-0.3131,0,0,-0.2753,-0.2778,-0.2796,-0.2842,-0.2864,-0.2895,-0.289,-0.2923,-0.2946,-0.2955,-0.2995,-0.3013,-0.3046,-0.3088,-0.3108,-0.3104,-0.3169,-0.3152,-0.3153,-0.3156,-0.318,-0.3185,-0.3189,-0.3133,-0.3133,-0.3132,0,0,-0.2784,-0.2806,-0.2838,-0.286,-0.2893,-0.291,-0.2917,-0.2952,-0.2965,-0.3005,-0.3013,-0.304,-0.3093,-0.3116,-0.3135,-0.3174,-0.3179,-0.3184,-0.3198,-0.3222,-0.3226,-0.323,-0.3244,-0.3249,-0.3187,-0.3187,-0.3187,0,-0.279,-0.2836,-0.2853,-0.2885,-0.2906,-0.2915,-0.2948,-0.2968,-0.301,-0.3024,-0.3019,-0.3086,-0.3108,-0.3156,-0.3166,-0.318,-0.319,-0.318,-0.3224,-0.3228,-0.3231,-0.3246,-0.3251,-0.3188,-0.3188,-0.3188,-0.3188,0,-0.2843,-0.2875,-0.2896,-0.2937,-0.2959,-0.2991,-0.3013,-0.3034,-0.3042,-0.3059,-0.31,-0.3127,-0.3164,-0.3175,-0.3184,-0.3225,-0.3222,-0.322,-0.3211,-0.3236,-0.325,-0.3256,-0.3188,-0.3188,-0.3188,-0.3188,0,0,-0.2874,-0.2922,-0.293,-0.2949,-0.2986,-0.3011,-0.3044,-0.3079,-0.3097,-0.3125,-0.3153,-0.3198,-0.3197,-0.3218,-0.3229,-0.3249,-0.328,-0.3245,-0.3246,-0.3252,-0.3327,-0.3329,-0.3335,-0.3283,-0.3284,-0.3285,-0.3325,0,-0.291,-0.2969,-0.2985,-0.3034,-0.3064,-0.3074,-0.3102,-0.3128,-0.3145,-0.3173,-0.3191,-0.3222,-0.3218,-0.3231,-0.3251,-0.3272,-0.3296,-0.3269,-0.331,-0.3311,-0.3303,-0.3343,-0.3345,-0.3382,-0.3331,-0.3331,-0.3332,0,-0.296,-0.299,-0.3043,-0.3077,-0.309,-0.3115,-0.3149,-0.3175,-0.3205,-0.3216,-0.3239,-0.3248,-0.3283,-0.3271,-0.3319,-0.33,-0.3318,-0.333,-0.3332,-0.3337,-0.3324,-0.335,-0.3394,-0.34,-0.3341,-0.334,-0.3339,0,-0.2979,-0.3031,-0.307,-0.3085,-0.3126,-0.3144,-0.3161,-0.319,-0.321,-0.324,-0.3253,-0.3286,-0.3305,-0.333,-0.3348,-0.3337,-0.3394,-0.3384,-0.3405,-0.3404,-0.3417,-0.3416,-0.3465,-0.3426,-0.3426,-0.3426,-0.3426,0,-0.3018,-0.3051,-0.3079,-0.3103,-0.3139,-0.3157,-0.3192,-0.321,-0.3236,-0.3264,-0.3273,-0.3299,-0.332,-0.3349,-0.3363,-0.3401,-0.3409,-0.3418,-0.3422,-0.3418,-0.3417,-0.3431,-0.3429,-0.3428,-0.3427,-0.3427,-0.3427,0,-0.3046,-0.3066,-0.3109,-0.3143,-0.3153,-0.3178,-0.3208,-0.3231,-0.3248,-0.3283,-0.3292,-0.3318,-0.3352,-0.3372,-0.3415,-0.3424,-0.3467,-0.3469,-0.3457,-0.3459,-0.3479,-0.3477,-0.3539,-0.3549,-0.3502,-0.3503,-0.3503,0,-0.307,-0.3095,-0.3132,-0.3152,-0.317,-0.32,-0.3221,-0.3239,-0.3261,-0.3297,-0.3316,-0.3351,-0.338,-0.3434,-0.3456,-0.3489,-0.3493,-0.3512,-0.3498,-0.3494,-0.3494,-0.3493,-0.3496,-0.3515,-0.3515,-0.3516,-0.3516,0,-0.3112,-0.3121,-0.315,-0.3184,-0.3208,-0.3236,-0.3263,-0.3278,-0.33,-0.3324,-0.3359,-0.3381,-0.3425,-0.346,-0.3495,-0.3513,-0.3519,-0.352,-0.3527,-0.3524,-0.3517,-0.3522,-0.3465,-0.3519,-0.3519,-0.3519,-0.3518,-0.3518,-0.3139,-0.3162,-0.3192,-0.3225,-0.3247,-0.3272,-0.3296,-0.3316,-0.3345,-0.3383,-0.3392,-0.3429,-0.3458,-0.3505,-0.3524,-0.3553,-0.355,-0.356,-0.3562,-0.3565,-0.3566,-0.3511,-0.356,-0.356,-0.356,-0.356,-0.3559,0,-0.3182,-0.3202,-0.3232,-0.327,-0.3296,-0.3298,-0.3328,-0.335,-0.3382,-0.3409,-0.3437,-0.3478,-0.3511,-0.3537,-0.3571,-0.3589,-0.3593,-0.3598,-0.3597,-0.3602,-0.3566,-0.3558,-0.3595,-0.3595,-0.3595,-0.3595,-0.3595,-0.3595,-0.3208,-0.3247,-0.3259,-0.3309,-0.3329,-0.3366,-0.3383,-0.3406,-0.3427,-0.3472,-0.35,-0.3516,-0.3543,-0.3579,-0.361,-0.3616,-0.3629,-0.3634,-0.3641,-0.3608,-0.3604,-0.36,-0.3592,-0.3636,-0.3636,-0.3674,-0.3674,-0.3674]},{"header":{"parameterUnit":"m.s-1","parameterCategory":1,"la1":30.2991,"la2":30.254,"lo1":-89.0895,"lo2":-89.0444,"dy":0.0017,"dx":0.0017,"nx":28,"ny":28,"refTime":"2026-01-03T09:00:00:Z","depth":0,"parameterNumber":3,"parameterNumberName":"V-component_of_WINDS"},"data":[0,0,0,0,0,0,0,0,0,0,0,0,0,0,0,0,0,0,0,0,0,0,0,0,0,0,0,0,0,0,0,0,0,0,0,0,0,0,0,0,0,0,0,0,0,0,0,0,0,0,0,0,0,0,0,0,0,0,-5.7479,-5.748,0,-5.7614,-5.7616,-5.7617,-5.7593,-5.7591,-5.7588,-5.7586,-5.7718,-5.7723,-5.7729,0,0,0,0,0,0,0,0,0,0,0,0,0,-5.7195,-5.72,-5.7479,-5.7481,-5.7482,-5.7614,-5.7616,-5.7618,-5.7594,-5.7591,-5.7588,-5.7585,-5.7716,-5.7723,-5.7729,0,0,0,0,0,0,0,0,0,0,0,0,0,-5.7323,-5.7202,-5.7479,-5.7486,-5.7488,-5.7614,-5.7616,-5.7618,-5.7594,-5.7591,-5.7587,-5.7584,-5.7714,-5.7722,-5.773,-5.7854,0,0,-5.7757,-5.776,0,0,0,0,0,0,0,0,-5.7315,-5.7333,-5.7483,-5.7486,-5.7489,-5.7583,-5.7564,-5.7697,-5.7595,-5.7554,-5.7586,-5.7582,-5.7675,-5.7687,-5.772,-5.786,-5.7866,-5.7757,-5.7762,-5.7766,-5.7769,0,0,0,0,0,0,0,-5.7306,-5.7327,-5.7532,-5.7486,-5.7489,-5.7481,-5.7496,-5.7589,-5.7633,-5.7557,-5.7556,-5.7572,-5.7676,-5.7712,-5.7723,-5.7868,-5.7757,-5.7765,-5.777,-5.7773,-5.812,-5.8123,0,0,0,0,0,0,-5.7296,-5.732,-5.7528,-5.7536,-5.7392,-5.7489,-5.7505,-5.7556,-5.7632,-5.764,-5.7575,-5.7571,-5.7699,-5.7713,-5.7727,-5.788,-5.7766,-5.7774,-5.7779,-5.8116,-5.812,-5.8125,0,0,0,0,0,0,-5.729,-5.7315,-5.7522,-5.7428,-5.7454,-5.7498,-5.7556,-5.7561,-5.7597,-5.7646,-5.7652,-5.7604,-5.7696,-5.7715,-5.7824,-5.7884,-5.7778,-5.7786,-5.8111,-5.8117,-5.8123,-5.8184,0,0,0,0,0,0,-5.7282,-5.7313,-5.7362,-5.7429,-5.7459,-5.7619,-5.7559,-5.7566,-5.7612,-5.7608,-5.7674,-5.7682,-5.7695,-5.7811,-5.7833,-5.7894,-5.7792,-5.8106,-5.8114,-5.8121,-5.8177,-5.8191,-5.8204,0,0,0,0,0,-5.7272,-5.7371,-5.7364,-5.7389,-5.7521,-5.7622,-5.7639,-5.7654,-5.7617,-5.7666,-5.7698,-5.768,-5.7874,-5.7823,-5.7846,-5.7911,-5.8102,-5.8111,-5.812,-5.8171,-5.8188,-5.8204,0,0,0,0,0,0,-5.7306,-5.738,-5.7373,-5.7498,-5.7554,-5.7618,-5.768,-5.7672,-5.7738,-5.7731,-5.7745,-5.776,-5.7871,-5.7901,-5.7844,-5.8036,-5.7982,-5.7997,-5.8013,-5.803,-5.8043,-5.8034,-5.78,0,0,0,0,0,-5.7329,-5.7407,-5.7466,-5.757,-5.7599,-5.7635,-5.7679,-5.7687,-5.7745,-5.7768,-5.7807,-5.7863,-5.7937,-5.7984,-5.8055,-5.8181,-5.8195,-5.8237,-5.825,-5.8261,-5.8273,-5.8344,-5.8364,-5.8155,-5.8155,-5.8155,0,0,-5.7375,-5.7425,-5.7473,-5.7579,-5.7623,-5.7703,-5.7655,-5.774,-5.7799,-5.778,-5.7887,-5.7918,-5.798,-5.8099,-5.8153,-5.8128,-5.8335,-5.8273,-5.8281,-5.8288,-5.8356,-5.8376,-5.8393,-5.8161,-5.816,-5.8159,0,0,-5.7501,-5.7546,-5.764,-5.7686,-5.7756,-5.7779,-5.7802,-5.7868,-5.7889,-5.7996,-5.7985,-5.8053,-5.8179,-5.8226,-5.8265,-5.8412,-5.8398,-5.8433,-5.8504,-5.8574,-5.859,-5.8605,-5.8659,-5.8678,-5.8445,-5.8446,-5.8446,0,-5.7549,-5.7671,-5.7687,-5.7776,-5.7823,-5.7812,-5.7907,-5.795,-5.8038,-5.807,-5.8041,-5.8201,-5.8242,-5.8372,-5.8409,-5.844,-5.8467,-5.8426,-5.8587,-5.8602,-5.8616,-5.8667,-5.8687,-5.845,-5.8449,-5.8449,-5.8448,0,-5.7728,-5.7812,-5.7878,-5.7968,-5.8022,-5.8112,-5.8142,-5.8195,-5.8198,-5.8224,-5.8334,-5.8384,-5.8465,-5.8496,-5.8498,-5.8628,-5.861,-5.8584,-5.853,-5.8639,-5.8688,-5.8708,-5.8456,-5.8454,-5.8453,-5.8452,0,0,-5.7878,-5.7978,-5.8002,-5.8044,-5.8121,-5.8186,-5.8275,-5.8358,-5.8404,-5.8465,-5.8541,-5.8649,-5.8626,-5.8671,-5.8678,-5.8739,-5.8854,-5.8705,-5.8707,-5.8733,-5.9002,-5.9023,-5.9046,-5.8845,-5.8849,-5.8852,-5.8998,0,-5.8013,-5.8175,-5.8194,-5.8338,-5.8417,-5.8409,-5.8487,-5.8542,-5.857,-5.8639,-5.8668,-5.8746,-5.8708,-5.8736,-5.8795,-5.8828,-5.8909,-5.8817,-5.8916,-5.8919,-5.8903,-5.9071,-5.9093,-5.9228,-5.9016,-5.902,-5.9022,0,-5.8191,-5.8262,-5.8415,-5.8484,-5.8518,-5.8589,-5.8667,-5.8734,-5.8796,-5.8811,-5.8864,-5.8864,-5.8956,-5.8898,-5.9026,-5.8963,-5.9004,-5.9026,-5.9032,-5.9043,-5.8978,-5.9088,-5.9271,-5.9292,-5.9052,-5.9049,-5.9047,0,-5.8289,-5.8421,-5.8531,-5.8566,-5.8649,-5.8699,-5.8735,-5.8794,-5.8844,-5.8911,-5.8943,-5.9019,-5.9061,-5.912,-5.914,-5.9096,-5.9267,-5.9211,-5.9283,-5.9282,-5.932,-5.9317,-5.9514,-5.9344,-5.9343,-5.9343,-5.9342,0,-5.8438,-5.8532,-5.8576,-5.8644,-5.8749,-5.8769,-5.8873,-5.8906,-5.8959,-5.9032,-5.9028,-5.9096,-5.9118,-5.919,-5.9206,-5.931,-5.9328,-5.9343,-5.9346,-5.9345,-5.9343,-5.9373,-5.9365,-5.9348,-5.9347,-5.9346,-5.9345,0,-5.8565,-5.8598,-5.8717,-5.8787,-5.8807,-5.8882,-5.8941,-5.9005,-5.9032,-5.9125,-5.9147,-5.9189,-5.9274,-5.93,-5.94,-5.9411,-5.9533,-5.9527,-5.9514,-5.9514,-5.9586,-5.9579,-5.9809,-5.9841,-5.9648,-5.965,-5.9652,0,-5.8659,-5.8732,-5.8811,-5.8861,-5.8901,-5.8981,-5.9033,-5.9055,-5.9108,-5.9187,-5.9242,-5.9326,-5.9395,-5.953,-5.9568,-5.9645,-5.9642,-5.9717,-5.9654,-5.965,-5.9646,-5.9642,-5.965,-5.973,-5.9732,-5.9733,-5.9735,0,-5.8823,-5.8836,-5.8912,-5.8995,-5.9058,-5.9123,-5.9185,-5.9226,-5.9257,-5.9317,-5.9406,-5.946,-5.9565,-5.9648,-5.9728,-5.9763,-5.9755,-5.9755,-5.9776,-5.9775,-5.9766,-5.9774,-5.9548,-5.9749,-5.9748,-5.9747,-5.9746,-5.9745,-5.8937,-5.9003,-5.907,-5.9156,-5.9206,-5.9266,-5.9331,-5.9368,-5.9443,-5.9532,-5.954,-5.9636,-5.9697,-5.9803,-5.9843,-5.9917,-5.9895,-5.9925,-5.9933,-5.994,-5.9948,-5.9753,-5.9931,-5.993,-5.993,-5.993,-5.993,0,-5.9103,-5.9147,-5.9225,-5.9315,-5.9383,-5.9372,-5.9441,-5.9497,-5.9583,-5.9642,-5.9712,-5.9814,-5.9896,-5.9941,-6.0023,-6.0074,-6.0072,-6.0094,-6.0092,-6.01,-5.9961,-5.9936,-6.0095,-6.0095,-6.0095,-6.0095,-6.0095,-6.0094,-5.9197,-5.9309,-5.9331,-5.9468,-5.951,-5.9607,-5.9648,-5.9703,-5.9751,-5.9866,-5.9936,-5.9966,-6.002,-6.0106,-6.0181,-6.0192,-6.0223,-6.0248,-6.0257,-6.0127,-6.011,-6.0094,-6.007,-6.0254,-6.0254,-6.039,-6.0391,-6.0392]}]]